Location: Newark
(22.3060°N, 114.2134°E)
Time: 01:57:21
(UTC+00:00)

Vanguard 2 - Pass Details

Date: 09 August 2021
Orbit: 553 x 2937 km, 32.9° (Epoch: 27 September)

Event Time Altitude Azimuth Distance (km) Brightness Sun altitude
Rises 14:06:05 0° 212° (SSW) 5,674 11.9 -38.4°
Enters shadow 14:08:44 - 207° (SSW) 4,931 11.5 -38.9°
Reaches altitude 10° 14:11:19 10° 200° (SSW) 4,212 - -39.3°
Maximum altitude 14:19:06 23° 153° (SSE) 2,556 - -40.5°
Drops below altitude 10° 14:24:34 10° 103° (ESE) 2,864 - -41.4°
Sets 14:27:19 0° 88° (E) 3,531 - -41.8°
